STARLINK-31870, 59787

Orbit data source: Space-Track

STARLINK-31870, 59787 is a payload satellite owned by SpaceX/Seattle (US) in LEO that was launched on Sat, 18 May 2024 UTC via an FALCON 9 launch vehicle from the Air Force Eastern Test Range (AFETR). Payload-class satellites include a variety of spacecraft equipped with specific instruments for various scientific and technological missions. These include communications satellites like Starlink; space stations such as the ISS; scientific satellites like the Hubble; Earth observation satellites from companies like Planet Labs, Umbra, and HawkEye 360; GPS; miniature CubeSats for education and research; and military/defense satellites.

Loading next visibility...
Identifier
59787, 2024-093F
Orbit
LEO
Country
Flag of USUS
Related business
Manufacturer
SpaceX/Seattle
Mission
Operational spacecraft
Bus & Motor
STARLINK V2M, Unknown motor
Mass
730 kg wet, ~700 kg dry
Launch date (UTC)
2024-05-18 (1 year ago)
Launch vehicle
FALCON 9
Launch site
Air Force Eastern Test Range (AFETR)
Object type
Payload
Rocket body
Debris
Shape & HBR
Unknown
Radar Cross Section
Large (>1 m²)

Expand to show TLE details & history
Last TLE update: 14 hours ago

TLE from 14 hours ago
0 STARLINK-31870
1 59787U 24093F   25260.96328408 -.00000622  00000-0 -13054-4 0  9998
2 59787  43.0027 103.9764 0002496 258.6760 101.3811 15.27572950 76280
Epoch: 2025-09-17T23:07Z
TLE epoch observation values (Epoch: 2025-09-17T23:07:07.744Z)
Latitude
-0.00004°
Longitude
120.0624°
Altitude
483.184 km
Speed
7.625 km/s
True Right ascension
06h 55m 54s
True Declination
0° 00' 00"
Sunlit
Object was in daylight at epoch
Visualization orbit readout
Latitude
Unknown
Longitude
Unknown
Altitude
Unknown
Speed
Unknown
Apparent Right ascension
Unknown
Apparent Declination
Unknown
Sunlit
N/A
Visualization observer readout
Local Sidereal Time
05:38:54
Azimuth
Unknown
Elevation
Unknown
Doppler factor
Unknown
Orbital elements
Apogee altitude
486.728 km
Perigee altitude
483.302 km
Semi-major axis
6,863.152 km
Eccentricity
0.00025
Inclination
43.0027°
RAAN
103.9764°
Arg. of periapsis
258.676°
True anomaly
101.40914°
Mean anomaly
101.3811°
Eccentric anomaly
101.39512°
Mean motion
3.81731 °/min
Orbital period
94.31 mins
BSTAR
-0.000013054
Loading maneuver chart data...
Computing Atmospheric mass density...
Loading historical data...
Loading historical data...
Loading historical data...
Loading historical data...
Loading historical data...
Loading historical data...
Loading historical data...

Documentation

Showing up to 5 results
|